TimeEST,TemperatureF,Dew PointF,Humidity,Sea Level PressureIn,VisibilityMPH,Wind Direction,Wind SpeedMPH,Gust SpeedMPH,PrecipitationIn,Events,Conditions,WindDirDegrees,DateUTC
12:53 AM,1.0,-4.0,79,30.10,10.0,Calm,Calm,-,N/A,,Clear,0,2013-01-26 05:53:00
1:53 AM,1.0,-2.9,83,30.11,10.0,SW,5.8,-,N/A,,Clear,220,2013-01-26 06:53:00
2:53 AM,-2.9,-7.1,82,30.13,10.0,Calm,Calm,-,N/A,,Clear,0,2013-01-26 07:53:00
3:53 AM,-4.0,-8.0,83,30.14,5.0,Calm,Calm,-,N/A,,Scattered Clouds,0,2013-01-26 08:53:00
4:53 AM,1.0,-2.9,83,30.15,10.0,Calm,Calm,-,N/A,,Overcast,0,2013-01-26 09:53:00
5:29 AM,3.2,-0.4,85,30.10,10.0,Calm,Calm,-,N/A,,Overcast,0,2013-01-26 10:29:00
5:53 AM,3.9,-0.9,80,30.17,10.0,SW,3.5,-,N/A,,Overcast,230,2013-01-26 10:53:00
6:14 AM,3.2,-0.4,85,30.11,10.0,SW,4.6,-,N/A,,Overcast,230,2013-01-26 11:14:00
6:53 AM,5.0,1.0,84,30.19,10.0,West,3.5,-,N/A,,Overcast,260,2013-01-26 11:53:00
7:53 AM,6.1,1.0,80,30.21,10.0,West,3.5,-,N/A,,Overcast,260,2013-01-26 12:53:00
8:53 AM,7.0,3.0,84,30.22,10.0,WSW,4.6,-,N/A,,Overcast,250,2013-01-26 13:53:00
9:53 AM,10.9,5.0,77,30.25,10.0,SW,3.5,-,N/A,,Overcast,230,2013-01-26 14:53:00
10:53 AM,14.0,7.0,74,30.25,10.0,Calm,Calm,-,N/A,,Scattered Clouds,0,2013-01-26 15:53:00
11:53 AM,18.0,7.0,62,30.24,10.0,Calm,Calm,-,N/A,,Overcast,0,2013-01-26 16:53:00
12:53 PM,19.9,5.0,52,30.24,10.0,WSW,8.1,-,N/A,,Overcast,240,2013-01-26 17:53:00
1:53 PM,21.9,6.1,51,30.24,10.0,NW,6.9,-,N/A,,Overcast,320,2013-01-26 18:53:00
2:53 PM,21.9,6.1,51,30.26,10.0,NW,3.5,-,0.00,,Overcast,310,2013-01-26 19:53:00
3:53 PM,23.0,5.0,46,30.28,10.0,Variable,6.9,-,N/A,,Overcast,0,2013-01-26 20:53:00
4:53 PM,21.9,5.0,48,30.29,10.0,NW,4.6,-,N/A,,Overcast,310,2013-01-26 21:53:00
5:53 PM,19.0,9.0,65,30.32,10.0,ENE,5.8,-,N/A,,Overcast,60,2013-01-26 22:53:00
6:53 PM,12.9,6.1,74,30.34,10.0,Calm,Calm,-,N/A,,Clear,0,2013-01-26 23:53:00
7:53 PM,7.0,3.0,84,30.36,10.0,Calm,Calm,-,N/A,,Clear,0,2013-01-27 00:53:00
9:53 PM,3.9,1.9,91,30.40,10.0,Calm,Calm,-,N/A,,Clear,0,2013-01-27 02:53:00
10:53 PM,3.0,-0.0,87,30.42,10.0,Calm,Calm,-,N/A,,Partly Cloudy,0,2013-01-27 03:53:00
11:53 PM,6.1,1.9,83,30.43,10.0,West,5.8,-,N/A,,Scattered Clouds,260,2013-01-27 04:53:00